Theta_e
318 317 316 316 315 318 321 322 328 330 329 326 326 328 322 323 326 324 325 325 326 324 322 324 322 324 323 329 335 334 333 334 337 335 335 337 333 334 335 335 333 330 330 329 331 329 321 316 314 310 309 309 308 310 311 311 314 319 319 316 316 317 317 313 313 312 312 316 321 324 323 321 324 325 319 313 311 314 316 317 318 316 315 314 312 311 311 311 312 315 316 317 319 321 320 319 319
318 317 316 315 316 320 322 323 331 332 329 324 322 325 321 322 325 324 326 326 325 323 323 326 324 327 327 328 330 331 335 337 336 336 337 336 334 335 335 334 332 329 328 328 331 326 318 316 313 310 309 309 308 309 312 313 313 315 317 319 321 322 319 312 312 314 316 321 324 326 325 323 324 324 323 315 311 313 317 321 322 321 322 321 317 313 312 312 312 312 312 313 318 319 317 316 318
317 317 316 316 318 320 323 325 331 329 324 323 322 325 322 321 324 324 325 324 322 322 324 325 324 327 328 331 334 334 336 337 337 337 337 336 335 335 335 334 332 329 327 330 330 322 316 315 312 310 309 309 309 309 313 316 316 318 322 326 326 325 322 315 312 314 320 322 322 326 325 322 319 319 321 315 311 314 315 317 319 321 321 318 317 316 314 312 312 311 310 313 317 318 317 314 316
317 316 315 316 321 324 326 326 332 329 322 323 322 323 325 325 324 322 323 323 322 322 323 324 327 327 329 334 335 336 337 337 337 337 338 337 334 335 336 334 333 329 326 330 327 319 316 314 312 310 310 310 310 310 314 320 322 324 328 330 329 328 325 318 312 314 323 324 321 325 325 320 318 320 321 315 312 313 312 313 315 315 314 315 318 319 317 312 310 311 311 315 318 318 318 315 316
317 316 315 318 324 324 325 325 332 328 320 325 322 321 325 325 324 321 322 322 322 322 323 324 329 329 330 334 333 336 338 338 337 337 336 336 334 335 337 335 332 328 327 329 323 317 315 313 312 310 310 310 311 312 316 322 325 326 329 330 330 329 326 319 313 311 318 325 324 323 323 321 322 323 320 314 315 317 318 319 317 314 312 315 318 320 320 315 310 310 312 316 318 318 319 316 317
316 315 315 319 324 322 325 326 331 330 324 330 324 324 326 322 324 321 321 323 323 324 323 323 327 329 332 334 333 335 336 337 336 336 336 336 335 337 337 335 331 327 328 327 321 317 314 312 311 310 310 311 311 313 318 324 326 327 328 330 330 329 326 318 312 309 312 322 325 323 322 322 322 322 315 313 318 320 321 322 322 321 317 318 320 320 321 317 312 311 311 315 316 316 318 317 318
315 317 316 320 322 321 330 330 330 331 323 325 324 326 325 320 322 321 322 323 324 324 324 324 324 328 333 334 333 334 335 335 335 335 336 335 336 338 337 335 330 327 329 325 319 316 314 312 311 310 310 311 311 312 317 323 327 326 328 329 328 328 324 316 309 309 312 319 323 321 321 323 321 318 313 313 318 318 318 318 319 320 319 319 319 319 319 316 313 312 311 314 315 315 317 317 319
316 320 320 322 326 324 329 326 329 331 317 318 323 324 322 321 322 321 323 323 324 324 323 324 323 327 331 332 334 335 334 334 334 335 336 335 336 337 337 333 328 328 330 324 319 317 315 313 311 311 310 311 311 311 313 320 325 324 326 329 328 326 319 312 308 308 312 315 321 321 320 320 318 315 313 314 315 315 315 315 315 315 316 315 315 315 315 313 313 312 312 314 315 315 317 318 319
316 322 322 323 326 327 330 325 325 325 318 319 321 322 322 322 322 321 321 321 323 323 323 324 323 327 330 332 336 335 334 335 334 334 335 333 334 334 334 331 327 330 330 323 318 318 316 314 311 310 310 310 311 311 311 315 322 322 324 328 326 320 312 309 308 307 309 311 317 318 317 317 316 315 315 315 315 316 316 316 316 315 314 313 314 314 314 312 312 313 312 313 315 316 317 317 319
317 322 320 324 326 323 327 329 327 322 319 319 319 321 323 322 321 320 320 321 323 322 322 322 323 328 331 334 336 335 336 337 334 335 334 332 332 331 332 330 328 331 329 323 318 318 318 316 313 311 311 311 311 312 312 312 316 318 320 321 318 311 307 308 307 308 308 309 313 314 315 317 318 316 315 316 317 319 319 319 318 317 315 313 312 312 312 312 312 312 313 313 315 316 317 317 318
320 321 320 328 328 321 325 331 332 326 320 318 318 321 322 322 319 318 319 321 321 322 321 322 329 330 332 334 335 336 337 337 335 335 335 334 333 330 330 329 332 333 329 324 319 319 319 318 316 313 312 312 312 313 313 312 312 314 314 313 310 308 308 308 307 308 308 311 313 315 317 317 317 317 316 318 320 321 321 321 321 320 318 315 313 312 312 311 311 312 313 314 315 315 316 317 317
321 324 328 333 330 325 328 329 329 327 321 319 319 320 321 319 318 319 320 321 320 321 320 322 328 329 333 333 334 337 337 337 335 335 335 335 333 330 330 329 333 335 332 327 320 319 319 319 318 316 315 314 314 314 314 313 312 312 311 310 309 309 308 308 308 308 310 313 315 317 317 317 317 318 319 320 321 321 321 321 321 321 321 319 317 314 312 311 311 312 312 313 314 314 315 316 316
321 325 330 330 331 330 329 327 325 323 320 320 319 319 320 317 319 320 319 321 320 321 320 321 324 327 334 333 333 337 337 336 335 335 335 336 334 332 332 329 332 336 334 329 322 320 320 320 320 318 318 317 316 316 316 315 314 313 312 312 310 310 309 309 309 309 313 316 318 317 317 318 319 320 321 321 322 322 321 320 321 321 321 321 321 319 316 314 312 312 312 312 312 313 314 315 315
321 322 325 326 328 329 328 326 322 321 321 322 318 317 320 317 319 320 320 322 320 321 320 320 322 328 335 333 334 336 336 336 335 336 336 336 335 334 334 331 331 334 335 331 326 322 320 320 321 320 320 319 318 318 318 317 316 315 314 313 312 312 312 311 311 312 315 318 318 318 318 319 320 321 321 322 322 322 321 321 321 321 321 321 322 322 321 319 316 314 312 312 312 312 313 313 314
319 320 325 328 327 326 327 325 321 321 323 323 319 317 319 317 320 320 321 322 320 319 318 321 323 325 332 335 334 331 333 336 335 336 336 336 335 335 335 333 331 332 335 333 329 324 321 320 321 321 321 321 321 320 319 319 318 317 316 316 315 314 314 314 314 314 317 318 318 318 319 319 320 321 322 322 322 322 322 322 322 322 321 321 321 321 321 321 321 319 317 315 313 312 312 312 313
320 319 325 328 327 326 325 324 320 321 322 320 317 318 319 317 319 319 320 320 319 318 318 321 321 322 323 327 326 320 329 336 335 336 336 336 335 335 335 334 333 332 333 334 331 327 323 321 321 321 322 322 322 322 321 321 320 320 319 318 317 316 316 316 316 316 317 318 318 319 319 319 320 321 321 322 322 322 322 321 321 321 321 321 321 321 321 321 321 321 321 319 318 315 314 313 312
319 320 325 327 328 326 326 325 320 323 326 319 316 318 319 317 317 318 319 318 318 318 318 320 320 322 321 322 321 315 327 335 335 335 336 335 335 335 335 335 334 333 332 333 332 328 324 322 321 321 321 322 322 322 322 322 322 322 321 320 319 319 318 317 317 317 318 318 318 319 319 319 320 320 321 321 321 321 321 321 321 320 320 320 320 320 321 321 321 321 321 321 321 320 319 317 315
319 324 325 323 328 327 327 327 319 321 324 318 316 318 318 318 317 317 318 318 318 318 318 320 320 322 322 323 322 316 325 334 335 335 335 334 335 335 335 334 334 334 331 331 332 330 325 323 322 321 321 321 321 322 322 322 322 323 323 323 322 321 320 320 318 318 318 318 318 318 319 319 320 320 320 320 320 320 320 320 320 320 320 320 320 320 320 321 321 321 321 322 321 321 321 320 319
320 325 323 326 332 326 321 320 316 318 320 317 317 317 318 318 317 317 318 318 319 322 325 325 323 323 323 324 323 318 324 332 334 334 334 333 333 334 334 334 334 333 331 329 330 330 327 324 323 321 321 321 321 321 322 322 322 323 323 323 323 323 323 322 321 320 320 319 318 319 319 319 319 319 320 320 320 320 320 320 320 320 320 320 320 320 321 321 321 321 321 322 322 322 322 321 321
319 319 323 332 330 320 317 315 315 318 318 316 316 317 318 317 318 317 317 317 317 321 327 328 326 323 323 324 323 319 323 330 333 333 333 332 332 332 331 332 331 329 329 327 328 329 327 325 324 322 321 321 321 321 321 321 321 322 322 323 323 323 323 323 323 322 322 321 320 320 319 319 319 320 320 320 319 319 320 319 320 320 320 320 320 321 321 321 321 321 322 321 322 322 322 322 322
317 316 323 328 319 316 318 315 315 317 316 316 317 317 317 317 318 316 316 318 317 317 321 324 323 321 321 325 325 321 323 329 332 333 333 332 331 331 330 328 327 325 325 327 326 327 326 326 325 324 323 321 321 323 323 323 322 322 322 322 322 323 323 323 323 323 323 323 322 322 321 321 321 321 320 321 321 321 321 321 321 321 321 322 322 322 322 322 322 322 322 322 322 322 322 323 323
317 317 319 319 315 316 318 316 315 316 316 316 316 316 318 317 316 316 316 318 318 317 318 318 318 317 318 321 324 324 323 326 330 331 332 332 331 331 330 329 328 328 327 327 326 325 325 325 326 326 326 324 322 324 326 327 326 324 323 323 322 323 323 323 323 323 323 323 323 323 323 322 322 323 322 323 323 323 323 323 324 324 324 324 324 324 324 324 324 324 324 324 323 323 323 323 323
317 318 316 316 316 315 317 316 315 315 316 316 315 317 317 316 316 316 317 318 318 317 318 318 317 316 317 318 321 323 323 323 325 327 329 329 329 328 328 329 328 328 327 325 325 325 324 324 326 327 328 326 324 326 328 329 329 328 327 326 325 324 323 323 323 323 323 323 323 323 323 323 323 324 323 323 324 324 325 324 325 325 325 325 325 325 325 325 325 325 325 325 325 324 324 324 324
315 317 316 316 316 315 317 316 315 316 316 316 316 317 316 316 317 316 315 317 317 317 317 317 317 317 318 319 320 320 319 319 319 321 324 326 326 325 325 326 326 326 325 324 324 324 323 323 326 327 328 327 326 326 328 329 329 329 329 328 327 326 325 324 323 323 323 323 323 323 323 323 323 324 323 323 324 324 325 325 325 325 325 325 326 326 326 326 326 326 326 326 326 326 325 325 325
313 316 317 316 316 316 316 316 315 316 316 316 316 316 316 316 316 315 315 317 316 316 317 316 316 317 319 319 319 319 318 318 318 319 322 324 325 326 326 325 325 325 325 324 324 324 323 323 324 326 326 327 326 326 327 327 328 329 328 327 327 326 325 324 323 323 323 323 323 323 323 324 324 323 323 323 323 323 324 325 324 325 325 325 326 326 326 327 327 327 327 327 327 327 327 326 326
313 315 316 315 316 315 316 315 315 316 315 315 316 315 315 315 315 315 315 316 316 316 317 317 316 317 318 319 318 317 317 317 317 318 319 322 326 327 327 326 325 325 324 324 324 324 324 323 323 324 324 325 325 325 326 326 326 327 326 326 326 325 324 324 323 323 323 323 323 323 323 324 324 324 324 324 323 324 324 324 325 325 325 325 325 325 326 326 327 327 327 327 327 327 326 326 326
313 313 314 314 315 315 315 315 314 315 315 315 316 315 314 314 314 317 316 315 316 316 316 317 317 316 317 318 318 316 315 315 315 316 318 320 324 326 326 326 325 324 323 324 324 323 323 324 324 323 324 323 323 324 324 325 325 325 325 325 325 324 323 323 323 322 322 322 323 323 324 324 325 325 325 325 324 324 324 324 324 325 325 325 325 326 326 326 327 327 327 327 328 327 326 325 325
312 312 313 314 313 314 314 314 315 315 315 315 315 314 313 314 315 317 316 315 316 316 316 317 317 317 316 317 317 316 315 314 315 316 316 317 319 320 322 323 323 323 322 322 323 323 323 323 324 324 324 324 323 323 323 324 324 324 324 324 324 323 322 322 321 321 321 320 321 321 322 323 324 325 325 325 325 324 324 324 324 324 325 325 326 326 326 327 327 327 327 327 327 327 327 326 325
312 312 314 315 313 314 314 313 314 314 315 315 314 315 315 316 315 316 316 315 316 316 316 317 317 317 317 317 316 316 315 314 315 315 314 314 314 315 316 318 319 320 319 320 322 322 322 323 324 324 324 324 323 322 322 322 322 322 322 322 323 322 321 320 319 319 319 319 319 318 319 321 321 322 324 324 325 325 324 324 323 323 324 325 326 327 327 327 328 327 327 327 327 327 327 327 326
313 312 314 317 315 316 315 312 314 314 314 315 314 317 319 318 315 315 315 315 316 318 317 317 317 317 317 317 317 316 315 314 315 314 313 314 314 314 314 314 316 317 316 318 319 319 320 322 323 323 323 324 323 322 322 321 321 320 320 320 321 320 319 319 318 318 318 318 318 318 318 319 319 320 321 322 323 324 323 323 322 322 323 324 325 327 328 328 327 327 327 327 327 327 326 326 326
314 312 314 317 317 321 318 311 313 315 314 314 314 316 319 319 316 315 315 314 316 318 317 317 318 318 318 318 318 316 315 315 315 314 314 313 313 314 313 314 314 315 316 316 316 316 319 321 322 323 322 322 323 322 322 321 321 320 319 319 319 319 319 318 318 317 317 317 317 318 318 318 319 318 319 322 323 323 322 322 322 322 322 323 324 325 327 328 327 327 327 327 327 326 326 326 326
315 313 317 317 315 324 322 311 312 315 314 313 313 315 318 318 315 314 314 314 315 316 317 318 318 318 317 318 317 316 315 315 315 314 314 314 314 314 313 314 314 314 315 315 315 318 320 321 321 322 321 321 321 322 322 322 322 321 320 320 320 319 319 318 318 318 318 318 317 317 318 318 319 319 320 322 323 323 323 323 324 325 325 325 325 324 325 326 326 325 324 324 325 325 325 326 326
318 315 320 321 316 319 320 313 311 313 314 313 313 316 318 317 313 313 314 314 315 315 315 317 317 317 317 316 316 315 315 315 315 314 314 314 314 314 314 313 314 314 315 315 316 317 318 319 321 321 320 320 320 321 321 321 322 322 321 321 321 321 320 319 319 320 320 319 318 317 317 317 318 320 321 321 321 321 323 324 326 326 326 326 326 325 324 324 323 322 322 321 321 323 324 325 325
318 314 316 321 318 316 318 317 313 311 313 314 313 315 317 316 312 312 313 313 314 313 314 315 315 316 316 315 315 314 314 314 314 314 313 314 314 313 314 313 314 314 315 316 316 316 317 318 319 319 320 320 320 321 321 321 321 321 321 322 322 322 321 321 321 321 320 319 318 317 317 317 317 319 320 321 320 321 322 324 326 326 326 325 325 325 324 323 323 323 321 320 320 321 322 324 324
318 316 314 316 315 314 316 318 315 312 314 315 314 314 315 316 313 312 312 312 313 313 313 314 314 314 315 315 315 314 314 314 314 314 313 313 314 313 313 314 314 314 315 315 316 317 318 318 319 320 320 320 320 321 322 322 322 322 322 322 321 321 320 320 320 319 318 317 316 316 316 316 316 317 318 320 320 321 323 322 324 325 325 325 323 323 324 323 324 323 322 322 322 322 322 323 323
318 317 315 315 315 314 316 319 316 312 314 315 315 314 314 315 314 312 312 312 312 313 313 313 314 314 315 315 315 315 314 315 314 314 314 314 314 313 313 314 314 314 314 315 317 318 318 318 320 321 320 319 321 322 322 322 323 322 321 320 319 317 317 317 316 316 316 315 315 314 315 314 315 316 317 320 322 323 323 324 324 324 324 324 323 323 323 322 324 324 323 322 322 322 322 321 322
313 313 314 314 315 314 316 319 314 311 314 315 314 315 314 314 314 311 311 312 312 312 312 312 313 314 315 315 315 315 314 315 315 314 315 314 314 313 313 313 313 314 314 315 316 317 317 317 317 318 317 318 320 320 319 319 319 318 318 316 315 314 314 314 314 314 314 314 315 314 314 315 315 316 317 321 324 323 322 324 324 324 323 324 324 324 322 323 325 327 325 321 321 324 323 322 322
311 313 314 314 315 314 315 316 314 311 313 316 315 314 314 314 314 312 309 311 312 312 312 312 313 314 314 315 314 315 315 315 315 315 315 314 314 314 314 314 313 314 314 314 315 315 316 316 316 316 316 317 317 316 316 316 315 314 314 314 313 314 314 314 314 314 314 314 315 315 316 316 315 316 318 321 323 323 323 324 325 325 324 323 323 324 323 323 326 328 325 321 321 325 325 325 325
312 313 314 315 316 315 314 315 314 312 313 318 317 314 315 314 313 311 308 310 312 313 313 313 314 314 314 315 315 315 315 315 315 315 315 314 314 313 313 314 313 313 313 314 314 314 315 316 316 315 316 315 315 314 314 314 313 313 313 314 314 314 314 315 315 315 316 316 316 316 316 316 316 316 317 319 320 323 324 325 325 325 325 324 322 322 323 324 325 325 324 322 322 325 327 327 325
313 314 314 316 316 314 315 314 313 313 313 316 316 314 315 314 313 312 310 311 312 313 314 313 314 314 314 315 314 315 314 314 315 314 315 314 314 314 313 313 313 313 313 313 314 313 314 315 314 315 314 314 313 313 313 313 313 313 314 314 315 316 316 316 317 317 316 316 316 316 316 316 316 316 317 318 319 321 323 324 325 325 325 324 321 324 328 327 327 326 323 322 324 326 326 324 322
313 315 315 318 319 316 315 314 314 314 313 314 314 314 318 317 315 315 311 310 311 311 312 312 313 314 315 315 314 314 314 314 314 314 314 314 314 314 313 313 313 313 313 313 314 314 314 314 314 314 314 314 313 313 313 313 313 314 315 316 316 317 317 316 317 316 316 316 315 316 316 316 317 317 318 319 319 321 323 324 325 324 326 325 322 327 329 328 328 326 324 323 323 324 321 320 322
313 316 316 318 322 320 316 317 317 315 314 316 312 315 326 326 319 318 314 311 310 310 310 311 313 314 314 315 315 315 314 314 314 314 314 314 314 314 314 313 313 313 313 313 314 314 314 313 313 313 314 314 314 313 314 313 313 314 314 316 316 316 316 315 315 315 315 315 316 316 317 318 318 318 319 319 320 321 323 325 325 326 330 330 325 324 324 325 327 326 326 325 322 321 320 322 323
312 317 318 318 321 323 320 318 318 318 316 314 313 316 324 323 320 322 318 315 315 311 309 309 312 314 314 314 315 315 315 315 314 314 315 314 314 314 314 314 313 313 313 313 314 314 314 314 314 314 314 314 314 314 314 314 314 314 314 314 314 314 314 314 314 315 316 317 318 319 320 320 319 320 320 320 321 321 321 322 323 324 328 328 324 321 321 325 328 329 328 324 323 323 323 323 322
315 320 320 320 322 325 323 318 318 321 316 316 319 318 316 316 318 321 316 315 319 316 313 310 309 312 314 314 315 315 315 315 315 315 315 314 315 314 314 314 314 314 314 314 314 313 313 314 314 314 314 314 314 314 314 314 314 314 314 314 314 314 314 315 316 317 318 318 319 320 320 321 321 321 320 319 319 319 318 319 319 321 322 322 322 319 320 323 324 326 325 323 324 325 324 323 321
319 322 320 320 321 324 324 319 320 319 313 319 323 315 314 321 324 322 316 315 318 320 321 315 309 310 313 314 315 315 315 315 315 315 315 315 315 314 314 314 315 314 314 314 314 314 313 314 314 314 314 315 315 315 315 315 315 315 315 314 314 314 315 317 318 319 320 320 320 320 321 321 321 321 320 318 317 317 317 317 318 319 320 322 322 319 320 324 323 324 326 324 323 321 320 321 321
317 319 320 321 322 322 322 323 324 318 314 323 326 316 314 322 328 325 317 315 318 319 319 314 309 312 314 313 314 314 315 315 315 315 315 315 315 315 315 315 315 316 315 315 315 315 314 314 314 314 314 315 315 315 315 315 316 316 315 315 315 315 316 319 320 320 320 320 321 320 320 320 320 319 318 317 316 316 316 316 317 317 318 320 320 319 320 323 323 323 323 321 319 319 319 320 320
314 318 321 320 323 324 326 330 326 316 318 327 328 320 314 317 325 325 317 316 318 316 316 314 309 312 313 313 314 314 314 314 314 315 315 315 315 314 315 315 316 316 316 316 316 315 315 314 314 314 314 315 315 315 316 316 316 316 315 315 315 317 318 320 320 319 320 320 321 321 320 319 318 317 317 316 316 316 316 315 315 315 315 315 316 316 317 317 318 318 316 316 317 318 319 320 320
315 325 323 317 323 326 327 330 323 316 323 327 323 317 314 315 322 324 319 318 317 313 316 317 312 312 314 314 315 314 314 314 314 315 315 315 316 315 316 316 316 317 316 316 316 315 315 314 314 314 314 314 314 315 315 316 317 317 316 316 317 319 319 320 319 319 320 320 320 320 318 317 316 316 316 315 315 315 314 314 313 313 313 313 313 313 313 313 313 313 313 314 314 314 315 317 317
316 323 319 316 322 321 319 322 320 319 322 318 315 314 314 316 317 318 317 316 316 311 310 313 311 311 314 314 314 314 314 314 315 315 316 316 316 316 316 317 317 317 317 316 316 315 315 314 314 313 313 313 313 314 314 315 316 317 317 317 319 320 319 320 320 321 321 320 320 318 316 316 316 315 315 314 314 314 313 313 313 313 312 312 312 312 312 312 312 312 312 312 312 313 313 313 313
314 317 317 318 321 315 314 318 316 316 318 314 311 313 316 317 316 317 316 313 314 310 308 311 312 312 313 313 314 315 314 314 314 314 315 315 315 315 315 315 316 316 316 315 315 314 314 314 313 313 313 312 312 313 313 314 316 317 318 319 319 319 320 321 322 321 320 319 318 316 316 316 315 314 314 313 313 313 312 312 312 312 312 312 312 312 312 312 312 312 312 311 311 311 311 311 311
315 317 318 319 322 318 317 320 317 315 316 314 310 313 319 319 316 316 312 309 311 311 310 312 311 312 313 313 314 315 314 315 314 314 314 314 314 314 313 313 313 313 313 313 313 313 313 312 313 313 312 312 311 311 312 314 315 317 318 319 319 319 321 322 321 320 318 317 316 315 315 314 313 313 313 313 313 312 312 312 312 312 312 312 312 312 312 312 312 311 311 311 311 311 311 311 310
316 317 317 317 320 324 321 319 322 320 318 316 312 315 321 318 314 312 309 308 309 309 311 312 311 312 313 313 315 315 315 315 314 315 314 313 313 313 313 312 313 312 312 312 312 312 312 312 312 312 312 311 311 311 312 313 315 316 317 317 317 319 320 319 318 316 315 315 315 314 314 313 313 313 313 313 313 313 313 313 313 313 313 312 312 312 312 312 312 311 311 311 311 310 309 308 307
316 314 318 318 317 324 321 314 316 316 316 318 315 315 321 318 314 316 314 312 312 309 309 310 312 313 313 314 315 314 315 315 314 314 313 313 313 312 313 312 312 312 311 311 311 310 311 311 311 311 311 311 310 310 311 312 313 315 315 315 315 316 316 315 314 314 314 314 314 313 313 313 313 313 313 313 313 313 313 313 313 313 312 312 312 312 311 311 311 310 310 309 308 307 305 304 303
318 316 317 316 314 320 321 316 316 314 314 320 317 315 320 318 318 323 319 314 315 316 312 309 310 313 313 314 314 314 315 314 313 313 313 313 314 312 313 312 311 312 311 311 310 310 310 310 310 310 310 310 310 310 310 311 312 312 313 313 313 313 313 313 314 314 314 313 313 313 313 313 313 313 313 313 313 313 313 312 312 312 312 312 311 311 310 310 309 308 307 305 304 303 302 301 301
314 315 314 315 316 318 318 317 318 314 313 321 321 315 317 318 320 325 319 316 320 318 316 313 310 310 312 313 314 313 313 313 313 313 313 313 314 313 313 312 312 312 311 310 310 309 310 310 310 310 310 310 309 309 310 310 311 310 310 311 311 312 313 314 314 313 313 313 313 313 313 313 313 313 313 313 313 312 312 312 312 311 311 311 310 309 308 307 306 305 304 303 302 301 300 299 298
311 312 312 315 317 318 318 317 318 318 316 320 320 316 318 320 321 323 317 317 320 315 316 316 309 309 312 312 313 313 312 312 312 313 313 314 314 314 313 313 313 312 312 311 310 310 310 310 310 309 309 309 309 309 310 310 310 310 310 311 313 314 314 313 313 313 313 313 313 313 313 313 313 313 313 312 312 312 312 312 311 311 310 309 308 307 305 304 304 303 302 301 300 298 297 297 297
313 315 314 313 313 315 318 317 319 321 320 320 316 315 323 324 318 317 315 315 317 314 315 314 308 310 313 312 312 312 312 312 312 313 313 314 314 314 314 314 313 313 313 312 311 311 310 309 309 309 308 309 309 310 310 310 311 311 312 313 314 314 313 313 313 313 313 313 313 313 313 313 313 312 312 312 312 311 311 311 310 309 309 307 306 305 304 303 303 302 300 298 297 297 296 296 296
314 314 315 314 313 315 315 314 317 318 317 322 318 314 323 325 316 313 314 315 314 310 310 310 309 311 312 312 312 312 312 312 312 313 313 314 314 314 314 314 314 313 313 312 311 310 310 310 309 309 310 310 310 311 311 312 313 313 314 313 313 313 313 313 313 313 313 313 313 313 313 312 312 312 312 311 311 311 310 309 308 307 306 305 304 304 303 303 301 299 298 297 296 296 296 296 296
Wind_Speed
3 3 5 5 6 5 5 5 2 2 3 1 2 0 2 2 2 4 2 1 3 4 11 14 13 13 9 9 11 10 8 1 3 2 4 9 18 19 15 15 15 13 12 12 12 9 8 7 7 8 9 10 11 12 13 14 14 14 12 11 11 12 12 11 10 9 9 9 11 13 13 14 15 14 13 13 13 13 12 12 12 12 12 12 12 12 12 12 12 13 13 13 13 13 13 13 14
3 3 4 5 6 3 2 4 2 3 4 2 2 2 1 2 3 5 5 3 5 10 18 20 18 17 14 13 10 6 8 6 2 7 13 18 22 18 14 15 14 13 12 12 11 8 8 7 8 9 10 10 11 13 15 16 16 15 14 12 12 12 12 13 11 11 11 11 12 13 14 14 14 14 13 13 13 12 12 12 12 12 12 13 13 13 13 13 13 13 13 14 14 13 13 12 13
3 3 4 4 4 3 1 3 2 1 3 0 3 2 1 3 4 6 7 10 15 19 20 18 14 11 10 10 8 4 5 7 10 17 22 22 22 20 16 15 13 12 12 12 11 8 8 7 8 9 10 11 11 14 16 17 17 16 15 13 12 11 12 12 11 12 12 11 11 14 13 13 13 13 13 13 13 12 12 12 12 13 13 13 14 13 13 13 13 14 14 14 14 14 12 12 12
3 3 3 3 2 3 3 3 1 4 1 3 2 4 1 6 6 6 10 17 18 16 13 11 10 6 8 9 8 7 6 8 14 21 24 22 20 21 18 15 14 12 13 13 10 8 8 7 9 10 10 11 11 14 16 17 17 16 16 15 11 10 11 11 11 13 12 11 12 14 12 12 12 12 12 14 14 12 12 12 12 13 14 13 13 13 13 14 13 14 14 14 14 14 12 12 12
3 2 3 2 2 2 2 2 1 4 2 4 3 4 3 6 6 6 9 15 14 12 12 11 7 6 11 10 6 5 7 11 15 19 22 20 18 20 18 15 14 14 14 13 10 9 8 8 9 10 11 11 12 14 16 16 17 16 17 15 11 9 10 11 11 12 13 12 12 13 12 12 13 12 13 14 13 13 13 12 13 13 14 13 12 13 13 13 13 13 13 13 14 14 12 11 10
2 2 3 2 3 1 2 1 1 1 5 5 4 4 5 7 10 9 9 12 13 12 11 10 8 8 10 9 7 10 12 13 15 17 20 19 17 17 16 15 15 15 15 13 11 9 8 9 9 11 12 12 12 13 15 17 16 16 17 15 11 10 10 11 11 11 12 13 12 12 12 12 12 13 14 14 13 13 13 14 14 14 13 13 13 12 13 13 13 13 13 13 13 13 12 10 9
1 2 2 2 3 2 3 2 3 3 4 6 6 6 8 9 13 14 11 10 10 9 9 11 14 11 7 7 9 12 11 10 15 16 17 18 17 17 16 16 16 17 16 14 12 10 10 9 10 11 12 12 12 12 14 16 15 15 16 14 11 11 11 10 11 11 11 12 13 12 12 13 13 14 15 14 13 14 15 15 15 14 13 13 13 13 13 13 12 12 13 14 13 12 11 9 9
1 0 2 4 2 3 3 1 4 3 2 3 7 9 12 15 17 13 8 7 7 8 11 14 13 8 3 5 6 9 9 9 13 14 15 16 16 17 17 17 17 18 16 14 13 11 11 10 10 11 12 12 12 12 12 15 15 14 15 14 11 10 10 10 11 11 11 11 12 12 12 13 14 15 15 15 15 17 17 17 16 15 14 13 13 12 12 12 11 12 13 13 12 11 10 9 9
2 1 3 3 1 2 2 2 3 3 3 2 6 10 16 19 18 13 7 6 10 12 13 13 10 6 5 5 7 10 11 11 12 13 14 15 16 17 18 18 17 18 17 15 14 12 12 11 11 11 12 12 12 12 11 13 14 14 15 15 12 10 10 11 11 11 11 11 11 12 12 13 14 15 16 17 18 18 18 18 17 16 16 15 13 12 12 11 11 12 12 12 12 11 9 8 8
2 2 2 2 2 2 2 2 2 3 4 3 5 13 19 19 15 13 11 8 13 14 12 12 8 9 10 8 10 13 14 13 14 14 14 15 16 18 18 17 17 18 17 16 14 13 12 12 12 12 13 13 13 13 12 12 13 14 14 14 12 12 12 11 12 12 12 13 12 12 12 13 14 16 18 19 19 18 18 17 17 17 17 16 15 14 13 12 12 11 11 12 11 10 9 8 7
2 3 3 4 3 0 3 3 3 4 3 2 3 14 21 19 14 12 12 10 13 14 13 10 8 15 13 7 9 14 16 15 16 16 16 16 15 17 18 17 17 16 16 16 15 14 13 13 13 13 14 14 14 14 13 13 13 14 14 13 12 13 12 12 12 13 13 13 13 13 13 14 16 18 19 18 18 17 16 16 16 16 17 17 16 15 14 13 12 12 11 11 10 9 8 7 6
2 2 3 4 2 3 4 3 4 5 4 1 3 12 17 18 14 10 12 12 12 13 13 9 12 18 9 3 10 16 18 17 16 17 19 17 16 16 17 17 16 15 15 15 15 15 14 14 14 14 14 14 14 14 14 14 14 14 14 13 13 13 13 12 13 13 14 14 14 14 15 17 17 18 18 17 17 16 15 15 15 15 16 17 17 17 15 14 13 12 11 10 9 8 7 6 5
3 1 5 2 3 3 3 2 3 1 3 3 6 10 15 16 15 16 16 14 13 12 9 9 17 17 5 3 12 18 21 21 20 20 21 18 17 15 15 17 17 15 14 15 16 15 15 14 14 14 14 14 14 14 14 14 14 13 13 13 13 13 12 12 13 14 14 14 14 15 16 17 17 17 16 16 15 14 14 14 14 15 15 16 16 16 16 15 14 13 11 9 8 7 6 5 4
3 2 4 1 0 3 4 1 1 3 4 6 6 10 14 13 16 22 18 12 10 12 9 10 19 14 5 6 11 21 24 24 25 23 23 20 18 16 14 16 17 16 14 15 16 15 15 15 14 14 14 14 13 14 14 14 13 13 13 13 13 12 12 12 13 14 14 14 14 15 16 16 16 16 15 14 14 13 13 13 13 14 14 15 15 14 15 15 15 14 12 10 9 7 6 4 3
3 2 4 2 2 1 3 2 3 5 5 5 7 10 10 9 17 23 20 14 8 13 13 11 18 9 6 11 11 23 28 27 29 26 25 23 20 18 16 16 16 17 15 16 16 16 16 15 15 14 14 13 13 13 13 14 14 13 13 12 12 12 12 12 12 13 13 14 14 14 14 15 15 14 14 13 12 11 11 11 11 12 12 13 13 12 12 13 13 13 12 11 9 8 6 5 3
4 2 4 2 1 2 3 3 4 2 5 5 8 10 8 7 16 19 17 17 11 14 13 11 16 6 8 15 7 19 30 30 32 29 27 24 23 21 19 17 16 17 16 17 18 18 17 16 16 15 14 14 13 13 13 13 13 13 12 11 11 11 11 11 12 12 12 12 13 13 13 13 13 12 12 11 10 10 9 9 9 10 10 10 10 10 10 10 11 11 11 11 10 8 7 5 4
3 2 2 1 1 3 3 4 4 4 6 6 9 12 8 5 12 14 13 17 17 15 12 10 13 7 7 11 5 18 31 33 34 33 29 25 26 25 22 21 19 19 18 18 19 19 19 18 17 16 16 14 14 13 12 12 12 12 12 11 11 10 10 10 11 11 11 11 11 12 12 12 11 10 10 9 9 8 8 8 8 8 8 8 8 8 8 9 9 9 9 9 8 8 7 6 5
1 3 2 3 3 4 4 6 6 4 5 9 13 14 11 8 11 14 11 14 18 15 11 11 12 9 8 9 9 20 32 35 37 36 32 29 29 29 26 25 23 21 20 20 20 21 21 19 19 17 17 16 15 14 13 12 12 12 12 11 10 10 9 9 10 10 10 9 9 10 10 10 10 9 9 8 7 6 6 6 6 6 6 6 6 6 7 7 7 7 7 7 6 6 6 5 5
2 3 1 4 5 4 4 5 8 6 8 15 16 14 13 12 15 18 10 9 16 12 8 10 11 12 11 11 14 23 32 36 39 38 36 33 31 32 30 28 26 24 23 23 22 22 23 21 20 19 18 17 16 15 13 13 12 12 11 11 10 10 9 8 9 9 8 9 9 8 8 9 9 8 8 7 6 5 4 4 4 3 3 4 4 5 5 5 5 6 6 6 5 5 5 5 4
3 3 1 5 5 5 7 3 9 13 13 19 17 14 14 14 18 17 11 10 11 11 11 12 13 15 14 15 19 24 31 36 39 39 37 35 33 32 31 29 28 25 24 25 24 24 24 23 21 19 18 18 16 15 14 14 13 12 12 11 10 10 9 8 8 8 8 8 8 8 7 7 7 7 7 6 5 5 4 2 2 2 1 2 3 3 4 4 4 4 5 5 5 5 4 5 4
2 4 4 6 2 3 8 6 5 13 14 22 20 13 12 16 17 15 15 10 5 13 21 18 17 19 19 20 22 25 30 36 40 39 37 35 33 32 31 28 25 23 23 24 25 25 25 24 22 21 20 19 18 16 15 14 14 13 13 12 11 11 10 9 9 9 8 8 8 8 7 7 7 7 7 6 5 5 4 3 2 1 0 1 2 2 3 3 4 4 4 4 4 5 4 5 5
2 6 8 10 7 5 11 11 6 9 12 17 18 12 12 17 14 16 21 11 9 20 25 21 18 18 19 22 23 24 28 34 39 39 39 37 34 33 31 29 26 24 23 24 26 26 26 25 23 22 21 20 19 17 16 15 15 14 13 12 12 12 11 11 10 10 9 9 9 8 8 8 8 8 7 7 6 6 5 4 3 2 2 2 2 3 3 3 4 4 4 4 5 5 5 5 6
4 7 8 10 9 6 12 11 4 5 11 16 18 15 15 16 10 17 25 17 15 20 21 18 16 15 18 22 24 25 27 32 36 38 39 38 35 34 32 30 28 26 23 23 25 26 27 26 24 23 23 22 20 19 18 17 16 15 13 13 12 12 12 13 12 11 11 10 10 9 8 9 9 9 9 8 7 7 6 6 5 5 4 4 4 4 5 4 4 4 5 5 5 6 7 7 7
5 6 7 7 8 7 12 10 5 5 13 17 17 15 16 17 9 13 23 22 15 13 16 17 16 17 19 22 24 25 25 27 30 33 36 36 34 32 30 29 28 26 24 23 24 25 27 27 25 25 24 23 21 21 21 19 17 16 15 14 13 13 12 13 12 12 13 12 11 10 10 10 10 11 10 9 9 8 7 8 7 7 7 6 6 6 6 6 5 5 6 6 6 7 8 8 9
6 8 10 9 9 8 10 10 5 4 10 13 13 13 17 18 8 10 20 19 13 11 14 17 19 21 21 23 24 23 24 24 26 29 33 35 35 33 31 29 28 28 27 25 25 25 25 26 26 26 25 24 23 22 22 21 19 18 17 16 14 14 13 12 12 13 14 14 13 12 12 11 11 11 11 10 10 9 9 10 9 9 9 9 8 8 8 8 8 7 8 8 8 8 8 9 10
5 8 11 8 7 6 6 9 5 2 7 10 11 9 12 14 5 9 19 17 13 12 12 16 21 24 24 23 24 23 24 23 23 26 29 33 35 35 34 32 30 30 28 26 26 25 25 26 26 26 25 24 23 23 23 21 20 20 18 17 16 15 14 13 13 13 13 15 15 14 13 13 12 11 11 11 11 10 11 11 11 11 11 11 10 10 10 10 10 9 9 9 9 9 9 10 11
13 15 13 9 6 5 5 7 5 3 4 9 11 5 6 9 3 6 16 18 16 14 12 14 21 25 26 25 24 24 23 22 21 22 26 31 35 36 35 33 32 30 28 28 28 25 24 26 26 26 25 24 23 23 23 22 21 20 19 18 18 17 16 15 15 14 14 14 15 15 14 14 13 13 12 13 13 12 13 13 12 13 12 12 12 12 12 12 11 10 10 10 10 10 10 11 11
20 18 10 6 3 4 6 5 6 4 3 8 9 3 1 3 3 7 15 20 19 17 15 16 20 24 26 26 25 25 24 22 21 22 25 28 30 32 33 33 32 30 29 29 27 25 24 25 26 26 26 25 24 23 22 23 22 21 20 20 20 18 17 17 16 15 14 13 14 14 14 14 14 14 14 14 14 14 15 15 14 14 13 13 13 13 13 13 12 12 11 11 11 11 11 12 12
19 12 5 4 3 2 7 6 6 6 2 6 8 2 3 3 9 12 15 22 21 18 19 19 21 24 25 27 26 26 25 24 25 25 24 23 23 26 28 29 29 29 28 27 26 25 24 24 25 25 26 26 25 24 22 22 22 21 21 20 20 19 18 17 15 14 14 13 13 13 13 13 14 15 15 16 16 16 17 17 16 16 15 14 15 15 15 14 14 14 13 13 13 13 13 14 14
13 6 4 2 4 3 7 6 7 6 4 7 9 3 6 7 16 15 13 23 24 20 21 22 23 25 26 27 27 27 26 26 27 25 23 22 22 22 23 24 26 27 26 26 25 24 23 24 24 24 25 27 26 24 23 22 21 20 20 20 19 18 17 16 15 14 14 14 14 14 14 14 14 15 15 17 18 18 18 18 18 17 16 16 16 16 16 16 16 16 15 15 15 16 16 16 17
5 2 2 2 1 4 6 4 7 6 5 8 7 4 6 7 17 18 13 22 26 23 23 23 24 25 26 27 27 27 27 27 26 24 23 22 22 22 21 22 23 25 25 25 24 22 22 22 23 24 25 26 26 25 24 23 22 21 20 19 19 19 18 17 16 15 15 15 15 16 16 15 15 15 15 16 18 19 19 19 19 19 17 17 17 17 17 16 16 16 15 16 17 17 17 17 18
2 3 3 1 4 4 6 3 10 7 4 7 6 3 6 7 12 14 15 21 26 26 25 25 25 25 26 27 27 26 26 26 26 25 24 23 24 23 22 22 23 24 24 24 23 22 22 22 22 22 23 24 25 25 24 23 23 22 22 21 20 20 19 18 17 17 17 17 17 18 18 17 17 17 16 16 17 18 19 20 20 21 20 18 20 20 19 17 17 17 17 17 18 17 18 19 20
2 2 3 1 4 3 4 3 8 6 3 4 5 2 4 5 7 6 13 23 27 26 25 27 27 26 27 27 26 26 25 26 26 26 26 25 26 25 23 22 23 23 23 23 23 24 23 23 22 21 22 22 23 23 23 23 23 23 23 22 22 22 21 20 19 19 19 19 19 19 18 18 18 19 19 18 17 17 19 20 21 22 22 21 21 22 22 20 18 18 18 17 17 18 19 21 21
2 1 2 3 3 3 2 3 5 6 3 4 5 3 6 6 5 3 9 21 25 25 25 27 28 28 28 27 26 26 26 26 27 26 26 26 26 26 24 23 23 24 24 24 24 24 24 23 23 22 22 22 21 22 22 22 22 23 23 23 23 23 23 22 21 21 21 21 20 19 19 19 19 19 19 19 18 17 17 19 21 22 22 23 23 22 24 21 18 18 17 16 17 19 21 21 20
3 2 2 3 2 3 3 4 5 7 4 4 6 5 10 10 8 5 6 14 21 23 24 25 27 28 28 27 27 27 27 28 27 25 24 25 26 25 25 24 24 25 25 26 26 26 26 25 25 24 23 22 22 21 21 22 22 23 24 24 24 24 24 23 22 22 22 20 20 19 19 19 19 19 19 19 19 19 18 17 17 19 21 22 21 21 21 18 17 17 15 15 16 17 18 19 19
5 5 4 4 4 4 4 5 5 7 5 5 7 7 10 12 10 10 9 11 16 20 21 21 23 26 27 27 27 27 28 28 25 23 23 24 26 25 25 24 25 25 26 27 28 28 28 28 27 27 25 24 23 23 23 23 24 24 25 25 25 25 23 22 22 22 21 20 19 18 18 18 18 18 18 19 19 19 20 18 17 16 17 18 18 18 18 16 16 15 14 15 15 16 16 16 17
3 2 2 5 5 5 4 4 4 4 5 6 8 8 10 10 8 13 14 9 12 18 19 21 22 24 26 27 27 27 28 27 23 22 22 22 24 25 25 25 25 26 27 28 30 31 30 29 29 28 27 26 26 25 25 25 26 25 26 25 24 23 21 21 20 20 20 18 17 17 17 17 17 18 18 18 19 19 18 18 18 16 14 15 17 17 17 16 18 17 17 17 16 16 16 13 14
4 3 4 4 5 5 5 3 4 1 4 5 4 6 10 10 9 13 11 6 12 21 21 22 24 24 27 28 29 29 28 27 25 23 22 22 23 25 26 28 28 28 29 30 30 31 31 31 30 29 28 27 27 26 26 26 26 25 25 23 21 20 19 19 19 18 17 16 16 16 16 16 16 17 17 18 19 19 18 16 16 15 14 15 16 16 15 15 17 19 19 18 17 20 21 17 16
6 4 2 4 3 3 4 3 3 1 3 4 2 4 9 10 9 11 10 10 17 25 26 26 26 25 27 29 31 31 29 29 28 26 23 22 23 23 26 29 30 30 29 29 30 30 32 32 32 30 29 29 27 26 26 26 25 24 23 22 20 19 18 18 18 17 16 17 17 17 16 16 16 17 17 18 17 17 17 17 16 15 16 16 15 12 12 12 13 15 18 18 18 22 25 21 20
5 3 3 4 2 2 3 4 2 1 1 2 1 1 6 7 7 8 14 19 23 27 27 26 27 26 29 31 31 31 31 31 30 27 25 24 24 24 27 29 30 31 31 31 31 31 33 33 32 31 30 29 28 27 26 24 24 23 23 22 21 20 19 18 19 19 19 20 19 18 17 17 17 17 17 16 16 15 15 16 16 16 16 16 13 12 15 16 15 18 18 16 18 23 23 20 19
5 5 6 4 3 5 4 2 2 2 2 1 3 4 5 5 6 8 11 15 20 23 22 23 27 29 31 31 31 32 33 32 31 29 27 26 26 26 27 28 29 31 32 32 32 32 33 32 31 30 30 29 28 27 25 24 25 25 24 24 23 23 23 22 23 22 22 21 20 18 17 17 17 16 16 15 15 15 14 15 15 15 16 15 13 15 19 18 16 19 18 15 17 18 18 18 19
6 6 9 8 7 5 3 4 4 3 3 2 1 1 5 4 4 9 6 4 10 14 15 22 29 32 33 34 34 35 34 33 32 30 28 28 27 27 27 28 29 31 32 32 31 31 31 31 31 31 30 30 29 27 26 26 27 27 27 27 26 26 26 25 24 23 21 19 17 17 17 17 17 16 16 16 16 15 15 15 15 16 17 17 16 15 14 15 19 21 18 15 17 15 16 19 20
5 6 9 8 5 5 5 5 4 2 3 3 2 4 5 6 4 7 5 4 8 8 9 19 29 32 34 36 37 37 35 34 34 32 30 29 29 28 28 29 30 30 29 28 30 31 31 30 30 31 31 31 30 29 28 29 29 28 28 28 27 27 27 25 23 21 19 18 17 17 18 18 18 17 17 17 17 17 17 17 17 16 18 21 21 16 14 16 20 21 19 19 19 17 17 18 18
5 5 6 8 6 7 7 7 4 2 3 3 4 3 3 5 6 6 3 4 8 8 8 15 25 32 35 37 38 37 36 34 34 33 31 30 30 30 29 28 28 28 26 26 28 30 30 30 30 30 31 31 31 31 30 30 30 29 28 28 27 28 27 25 22 20 18 18 19 19 19 19 18 18 18 18 18 18 19 19 18 17 18 20 20 17 15 15 15 16 20 21 21 19 17 17 18
6 5 6 7 6 6 6 6 3 1 1 3 4 1 2 5 7 6 3 3 7 9 9 11 19 28 32 36 38 37 37 35 34 34 32 31 30 30 29 27 26 25 25 26 26 27 28 29 30 31 32 32 31 31 31 31 30 30 29 28 28 28 28 26 23 20 20 20 21 21 20 20 19 19 20 20 19 19 18 18 17 18 18 18 19 17 15 15 15 17 21 23 21 18 16 17 17
4 6 6 4 4 5 4 5 3 2 1 5 6 2 2 5 6 4 3 2 6 9 8 9 16 21 24 29 32 34 36 35 35 34 32 31 30 30 30 28 27 26 26 26 26 26 28 29 30 31 32 32 31 32 32 32 32 31 31 30 30 29 29 26 24 23 23 22 22 22 21 20 20 21 20 20 18 17 16 15 15 17 17 17 19 18 16 17 18 19 22 22 19 16 16 16 15
8 6 5 6 5 4 3 3 3 1 3 6 7 4 2 4 6 4 4 4 6 7 7 9 15 18 18 21 24 27 30 31 31 32 31 30 30 30 31 31 29 28 28 28 28 28 29 30 31 32 32 32 31 32 32 33 33 33 32 32 31 30 29 26 25 25 25 24 23 22 22 21 21 20 18 17 15 14 14 13 13 14 14 15 16 16 16 16 17 18 19 18 16 16 17 17 15
9 4 4 4 3 3 3 4 2 1 5 6 5 3 4 4 5 4 6 6 6 7 7 8 12 16 15 14 18 21 23 25 26 28 28 29 29 29 31 31 31 31 31 31 31 30 31 31 32 33 34 33 33 32 33 33 34 33 33 33 32 30 28 26 26 26 26 25 24 23 21 20 18 17 15 14 12 11 11 11 11 11 11 11 11 11 12 12 12 13 13 13 13 14 15 16 16
5 4 6 4 1 1 0 3 1 3 5 4 3 2 3 5 7 9 10 10 10 10 10 11 12 14 13 11 12 14 17 20 23 25 27 28 28 29 29 30 32 33 33 33 33 33 33 33 34 35 35 35 35 34 34 34 34 34 34 33 32 29 27 27 26 26 25 25 23 21 19 18 16 14 12 11 10 9 10 9 9 8 8 8 8 8 9 9 9 9 9 9 10 10 10 11 12
4 6 6 4 2 2 3 3 1 4 5 3 2 2 3 3 6 11 13 16 17 13 12 17 18 17 17 14 12 11 12 16 19 22 24 26 27 28 29 30 32 33 34 34 35 35 35 35 36 36 36 36 36 36 35 35 35 35 34 32 30 28 28 28 27 26 25 24 22 19 18 17 14 12 10 10 9 10 9 8 6 6 6 6 6 6 6 6 6 5 5 5 5 5 5 5 5
5 5 6 5 5 4 4 3 3 4 3 2 2 1 3 3 4 8 11 15 18 15 14 18 20 21 22 19 15 13 13 15 17 19 21 24 26 27 28 29 31 32 33 34 35 36 36 37 37 36 36 36 36 36 36 35 35 34 32 31 29 28 29 28 27 26 24 22 20 18 17 15 12 11 11 11 10 9 8 6 5 5 4 4 4 4 3 2 1 1 0 1 1 2 2 3 3
3 3 5 5 5 5 3 3 5 4 1 2 2 3 4 4 6 9 9 11 13 13 12 12 14 17 19 19 18 17 16 16 18 19 20 22 23 25 27 28 28 29 30 31 32 33 34 35 35 35 34 34 34 34 34 34 33 32 31 30 29 29 29 28 26 24 22 20 19 17 15 14 13 13 11 10 8 7 6 5 4 4 4 3 3 2 2 2 2 2 2 3 3 3 3 4 4
1 3 4 5 4 6 4 2 1 3 1 3 2 3 4 3 6 9 6 7 9 9 10 11 12 12 13 17 18 18 17 16 17 18 18 19 20 21 23 24 25 25 26 27 28 29 30 31 31 31 31 32 32 33 32 32 32 31 31 30 30 29 28 26 24 22 21 19 18 17 16 15 13 11 9 7 6 5 5 4 3 3 3 3 3 3 3 3 3 3 2 2 2 2 3 3 4
4 4 6 3 3 3 3 2 2 2 3 4 0 4 4 2 3 6 7 7 9 8 9 11 12 11 14 17 18 17 17 16 17 18 17 17 17 17 17 18 19 20 21 22 23 25 26 26 26 26 27 29 30 31 31 32 31 31 31 30 28 27 25 24 23 22 21 20 20 18 17 14 11 8 7 6 6 5 4 4 4 3 3 3 3 3 3 2 2 2 1 1 1 3 4 5 6
3 3 3 4 3 2 2 3 2 1 3 4 3 4 4 3 4 4 5 6 8 8 8 7 9 14 19 20 19 18 17 18 18 17 17 16 15 14 13 13 13 14 16 17 18 20 21 22 22 23 24 26 28 29 30 30 30 29 29 27 25 24 24 23 23 22 22 21 20 17 14 11 9 8 8 7 7 6 6 5 5 4 4 3 3 2 2 1 1 0 1 2 3 4 5 7 7
2 1 0 1 2 4 3 3 3 3 4 4 4 4 4 6 6 5 8 9 9 10 7 5 11 18 23 23 21 19 19 19 18 17 16 15 14 12 11 10 9 9 10 12 14 16 18 19 21 21 22 24 25 26 27 27 27 27 26 24 24 24 24 24 24 23 22 20 17 14 12 10 10 9 9 8 8 7 7 7 6 6 5 4 3 3 2 1 1 2 3 3 4 5 5 7 8
2 3 4 2 1 2 1 1 3 4 4 3 3 4 6 6 5 8 11 11 10 10 7 6 13 19 22 23 22 21 20 18 16 16 16 15 14 12 10 9 8 7 8 10 12 15 17 19 20 20 21 22 23 23 24 25 25 25 24 24 25 25 25 25 24 22 20 17 15 13 12 12 11 11 10 10 10 9 9 8 7 6 5 5 4 3 2 2 3 4 4 4 5 5 5 7 8
4 4 6 7 3 4 3 4 1 2 3 5 4 5 8 6 5 9 11 10 9 8 6 8 15 18 18 18 19 20 19 17 15 15 15 15 13 11 10 10 9 9 10 12 14 16 17 19 20 20 20 21 21 22 23 24 24 26 26 26 26 26 26 25 23 21 18 16 15 14 14 13 13 13 12 12 11 10 10 9 8 7 6 5 4 3 3 4 5 5 5 5 5 6 7 9 10
Wind_Direction
204 255 280 291 306 315 342 10 26 353 66 101 304 146 174 194 163 118 119 97 69 57 79 81 76 75 84 99 108 99 64 78 185 128 161 145 143 152 146 152 162 156 147 145 148 139 122 105 99 102 108 117 128 139 142 144 148 151 143 130 119 107 100 97 104 106 103 102 98 97 98 97 95 94 99 101 94 91 91 91 93 95 94 94 94 92 91 91 94 97 99 97 95 96 96 97 92
203 256 287 292 310 327 349 34 62 338 34 43 298 155 184 350 85 144 163 134 128 118 90 85 86 81 88 95 89 76 46 42 144 133 131 138 146 152 147 154 159 152 146 144 146 136 119 108 107 110 114 121 131 138 136 135 137 141 138 127 115 103 93 87 92 100 100 101 102 99 99 97 99 97 95 101 97 89 85 85 86 87 86 88 90 91 91 91 93 96 99 100 98 99 101 102 98
216 253 292 296 322 351 31 43 77 54 48 202 270 259 127 98 147 189 165 132 126 114 95 90 86 77 90 81 54 66 74 75 125 131 133 147 151 150 150 154 157 151 146 144 143 134 120 113 115 116 119 124 131 140 137 132 131 132 128 120 114 104 92 86 88 100 103 107 109 103 100 100 105 102 96 102 101 92 85 82 83 83 81 83 86 88 91 91 92 94 100 102 103 102 103 107 102
239 258 298 300 9 14 51 53 121 117 118 204 227 285 195 143 177 202 144 127 126 114 102 94 69 61 90 91 84 88 103 110 130 136 140 155 155 147 148 153 159 154 146 146 142 131 122 114 116 120 119 122 129 138 138 131 128 127 122 117 118 109 97 89 87 99 104 104 108 104 102 104 104 99 97 102 101 93 85 83 84 84 83 84 86 87 90 93 93 96 101 101 105 103 100 108 106
255 279 310 317 70 18 65 67 87 97 233 189 151 262 217 160 170 185 145 127 125 112 108 105 80 88 89 95 115 108 135 137 137 145 147 157 158 147 148 158 161 155 151 147 141 130 119 114 118 122 119 118 127 135 134 128 126 126 121 118 121 113 104 96 87 97 104 100 102 105 105 104 102 99 99 99 97 92 87 85 85 87 88 87 86 87 89 95 97 99 103 103 107 105 101 108 108
265 296 311 15 73 34 76 61 298 291 243 169 146 216 197 178 164 155 133 119 117 113 114 116 124 117 88 83 105 128 141 147 151 157 153 155 157 151 156 164 162 158 154 147 141 130 117 118 122 125 123 117 123 133 129 123 124 127 123 120 123 116 106 99 93 96 104 102 101 103 102 102 103 104 103 98 95 92 90 88 86 87 88 88 86 86 87 92 97 101 105 107 111 111 107 109 107
267 298 320 62 63 36 98 182 235 249 241 168 163 176 182 188 161 143 124 115 111 115 122 128 136 119 91 99 110 135 144 159 163 160 157 154 155 161 167 166 165 160 154 149 139 131 121 117 124 127 125 118 120 128 126 122 125 130 124 119 121 119 110 101 100 101 103 105 104 105 102 104 105 104 104 100 95 93 92 89 85 84 83 86 87 87 88 91 97 102 108 111 116 117 116 113 106
193 67 50 79 44 24 98 218 250 222 245 168 170 168 175 175 159 146 136 133 123 124 127 135 143 113 109 148 127 151 153 163 169 164 161 157 158 167 172 169 167 162 156 150 140 134 125 116 124 127 126 122 121 124 125 125 128 132 125 120 123 122 113 105 107 106 104 105 105 107 106 106 105 102 102 99 95 93 92 88 85 82 81 84 88 91 95 98 103 107 113 116 120 123 121 116 109
147 103 55 81 93 17 44 320 279 243 272 182 162 172 173 169 160 149 138 128 132 132 134 147 153 129 158 151 124 148 149 159 172 170 167 161 162 168 170 171 170 164 159 151 144 140 129 121 124 128 129 125 122 122 125 128 130 135 131 127 129 125 115 111 113 110 107 104 102 103 103 104 104 103 102 100 97 95 93 90 87 83 82 81 84 89 95 103 110 113 116 119 123 126 126 121 116
130 94 75 78 100 9 326 303 270 267 264 221 183 179 170 168 164 149 140 133 139 132 134 153 145 136 150 135 127 148 153 164 174 173 173 165 166 170 166 168 172 169 162 153 149 146 136 128 126 128 130 127 125 122 122 127 129 133 135 133 128 122 115 115 115 112 110 105 102 102 104 103 105 108 106 103 101 98 95 92 89 85 83 80 79 81 89 101 109 113 115 120 124 127 128 126 124
104 65 89 75 78 118 234 256 265 270 276 303 224 185 171 167 159 143 138 135 144 133 134 148 133 133 134 134 147 154 158 171 181 177 172 171 175 174 165 166 173 171 165 157 154 153 145 137 132 129 129 128 126 123 121 121 122 125 129 128 123 119 117 118 118 115 112 108 105 103 105 103 104 110 109 108 105 100 97 93 91 87 84 80 78 78 83 93 101 108 112 117 121 125 127 128 128
115 14 75 90 150 188 200 224 256 269 298 328 205 194 180 167 150 144 143 140 146 135 142 155 150 142 119 135 160 155 161 171 182 177 171 176 183 176 168 168 172 172 168 165 160 159 153 144 139 133 130 128 126 123 122 119 119 122 124 125 123 122 120 121 121 119 116 112 109 106 105 104 106 111 111 109 104 100 96 93 91 88 85 81 77 77 79 85 92 100 105 111 116 121 124 128 129
121 77 92 125 195 162 163 216 254 290 299 235 191 189 184 171 153 157 150 142 147 138 148 165 160 150 114 153 160 160 166 171 175 174 172 179 184 178 175 172 173 175 174 175 168 165 161 152 146 140 135 132 130 126 123 122 122 124 125 127 126 125 124 123 124 123 120 117 115 113 111 110 111 112 111 108 103 100 96 92 91 87 84 81 77 75 76 79 84 89 95 101 106 112 118 123 125
98 90 108 174 187 142 152 179 245 159 241 240 191 175 178 178 161 159 149 138 151 145 141 160 166 156 127 147 167 174 171 172 172 170 174 179 184 182 184 181 178 178 179 183 178 172 168 160 155 149 144 140 137 134 129 127 124 126 127 128 128 128 128 126 127 127 125 122 119 118 116 115 115 114 113 110 106 102 98 93 90 87 84 81 77 75 74 75 77 80 84 88 94 99 106 109 108
89 54 91 122 349 293 183 194 179 168 229 230 190 171 161 173 166 161 153 149 157 150 138 149 171 172 172 172 188 184 172 171 172 169 176 180 184 185 191 192 188 187 186 187 185 181 176 170 164 158 156 150 147 143 137 134 130 129 128 129 130 130 131 130 131 130 128 126 124 123 121 120 118 118 117 113 110 103 98 94 89 85 82 79 77 75 74 73 74 75 76 78 82 86 91 91 86
73 49 72 82 292 258 225 200 124 137 243 213 184 165 132 155 168 166 160 158 151 152 151 154 175 198 199 183 191 178 168 172 172 171 179 181 183 186 194 199 197 198 195 192 190 188 184 180 174 169 166 161 159 154 147 144 138 135 132 132 133 132 134 133 133 132 131 129 128 128 126 127 124 123 121 116 113 106 100 93 87 83 79 77 75 72 70 71 71 71 73 71 72 74 77 79 77
61 69 71 13 210 214 218 176 154 179 227 212 187 169 135 144 172 171 164 162 153 155 165 163 180 199 195 186 183 169 165 172 174 173 181 182 181 185 193 199 201 204 205 200 196 192 188 187 184 179 176 173 171 166 159 155 148 145 142 140 139 137 137 135 137 135 135 134 132 134 132 133 131 127 124 120 116 109 104 94 88 82 78 75 70 68 65 64 64 64 66 66 66 62 62 63 63
94 97 122 242 193 200 193 176 196 176 177 199 194 180 155 152 171 165 154 156 150 153 167 166 182 187 181 190 183 170 165 171 176 176 182 183 183 187 193 199 202 207 208 206 202 197 192 190 191 188 185 182 180 177 170 166 161 158 154 151 149 146 144 141 142 140 141 143 141 142 139 139 136 133 130 127 122 115 109 99 89 80 76 71 65 63 58 55 53 52 54 55 56 51 46 43 40
190 127 137 230 197 225 241 202 210 198 180 185 189 187 171 163 163 159 153 156 150 143 151 160 173 175 175 180 173 170 168 173 178 180 185 188 189 191 194 198 203 208 209 206 204 200 196 193 194 194 192 190 188 186 181 177 174 171 167 163 160 158 157 154 154 153 151 153 154 153 151 150 146 144 144 138 135 129 119 107 95 77 64 58 51 49 46 45 40 37 39 39 37 34 30 23 18
226 175 238 240 220 263 287 272 223 223 193 174 182 189 179 170 163 163 164 163 166 164 164 164 169 172 171 170 169 171 171 175 181 184 188 192 196 198 199 202 205 209 208 206 204 200 198 197 196 196 197 197 194 192 190 188 185 185 181 176 173 171 171 171 170 171 169 169 168 166 165 166 164 160 159 156 154 152 143 136 122 81 40 25 23 23 20 20 18 15 17 18 18 15 12 5 358
217 178 208 233 238 292 294 327 274 242 204 176 175 174 179 176 169 173 162 147 212 201 187 189 187 182 175 170 172 174 175 178 184 187 191 195 198 202 206 209 211 212 210 206 205 202 199 198 198 198 200 201 199 198 197 195 194 193 192 189 187 185 186 186 187 188 188 187 185 184 183 184 186 181 175 173 172 174 170 172 178 169 240 314 338 346 342 346 350 347 347 349 347 345 348 349 344
249 235 235 247 269 282 291 319 325 252 210 178 164 163 183 178 179 184 170 164 220 207 199 202 203 199 191 184 179 178 180 183 187 191 194 198 200 203 208 211 213 213 212 209 206 204 201 201 200 200 202 203 202 203 203 201 201 199 199 199 199 199 199 199 201 202 202 201 201 202 199 198 206 208 197 189 192 196 194 198 210 217 226 261 282 298 304 306 319 321 321 323 322 318 318 324 325
279 260 250 249 259 255 283 305 323 234 190 176 170 176 177 168 192 195 186 200 215 207 205 206 212 216 208 197 188 185 186 188 192 195 197 201 204 206 209 212 214 214 216 215 211 208 205 204 203 203 204 205 204 206 208 207 205 204 205 207 209 210 210 209 210 212 214 213 213 213 210 209 216 224 219 205 207 212 215 219 225 235 238 246 262 275 281 284 293 298 302 305 309 310 310 309 307
277 261 268 250 253 256 275 286 303 231 193 188 180 176 171 169 192 196 199 214 218 216 211 211 215 212 206 199 196 195 194 193 197 199 201 205 208 210 212 214 216 217 220 220 217 214 210 208 207 207 207 206 205 206 210 211 210 210 209 213 215 216 218 217 217 219 222 223 222 219 218 219 219 226 228 219 218 221 227 231 234 242 244 246 252 259 265 272 280 285 292 293 296 302 305 306 302
263 237 257 251 251 256 266 267 285 245 207 202 184 175 176 177 185 198 207 212 211 215 210 211 210 205 205 204 204 202 200 199 200 201 203 207 210 212 214 217 217 217 220 219 219 220 217 214 212 211 211 210 207 207 212 214 214 215 216 218 220 222 224 225 225 224 227 230 231 229 227 228 228 232 235 233 231 228 232 239 242 244 247 249 248 250 255 260 265 270 280 285 289 291 295 297 296
268 249 244 235 236 236 248 252 261 229 209 200 185 181 181 180 187 214 211 205 195 195 197 206 205 204 206 208 209 206 204 204 202 203 205 207 210 212 215 217 219 219 220 219 220 223 222 219 218 217 217 216 213 211 214 217 217 219 222 224 226 230 232 233 233 228 228 231 234 237 234 234 237 239 242 246 245 241 240 243 245 247 250 253 253 253 253 255 259 262 268 274 281 287 292 292 291
289 291 259 239 232 223 221 235 240 218 210 200 189 191 198 186 181 227 211 198 192 187 185 199 203 205 208 209 211 209 209 208 206 206 205 207 209 212 215 217 220 221 221 220 220 222 222 222 223 222 223 223 221 218 217 221 223 224 226 228 230 234 237 238 239 236 232 230 232 237 238 239 241 243 245 249 253 253 251 251 250 250 252 255 257 257 257 257 258 260 267 271 275 282 288 290 292
286 290 263 249 241 221 207 206 222 211 215 208 187 172 254 181 202 232 206 193 196 196 189 191 198 204 209 210 209 209 211 210 210 210 208 210 210 212 214 216 219 221 221 220 219 219 219 221 224 226 226 227 227 226 224 224 228 231 231 232 234 236 239 241 243 243 241 238 235 235 238 242 245 247 248 251 255 255 257 259 256 255 255 255 258 259 261 263 264 266 269 272 274 277 282 286 288
285 271 234 286 355 278 222 191 196 198 214 195 161 148 285 239 225 226 203 195 198 198 194 191 196 202 206 209 209 209 211 210 211 214 215 215 215 215 215 217 219 221 222 220 218 218 218 219 222 224 226 228 230 230 229 228 230 233 235 236 238 240 241 243 244 245 247 247 244 243 242 245 248 249 251 253 256 257 258 259 260 261 259 258 259 261 262 265 268 271 271 272 274 277 279 279 281
280 249 189 283 6 311 231 189 179 184 205 181 153 201 255 246 232 222 198 196 195 194 197 194 195 200 204 207 209 209 210 211 214 218 220 218 218 219 219 221 221 224 225 221 218 218 217 218 219 222 225 227 229 231 231 231 231 232 234 236 238 241 242 245 247 249 252 253 253 254 252 251 252 253 254 255 256 258 260 262 265 266 265 263 262 262 264 266 269 271 273 275 277 278 279 279 280
260 226 200 215 146 275 261 192 165 165 207 187 157 224 248 259 242 227 209 201 196 195 198 197 198 200 204 206 208 211 212 214 220 223 222 221 221 221 222 223 224 226 225 224 223 221 218 219 221 222 224 226 228 230 231 232 233 234 234 235 237 240 242 246 250 253 256 259 259 259 259 257 256 257 257 256 257 258 260 264 268 270 272 271 269 266 262 262 267 271 274 278 280 280 281 283 285
270 207 253 311 165 257 299 215 176 168 200 181 158 228 254 275 257 231 214 205 200 200 200 200 202 201 203 206 208 213 216 219 224 226 225 225 223 223 223 222 225 227 226 226 226 225 224 224 226 226 225 226 227 229 232 234 236 237 237 236 237 239 242 246 249 253 256 258 259 260 260 259 259 260 258 255 256 259 261 263 266 268 270 271 274 274 267 262 265 270 274 276 277 279 283 288 288
324 194 235 259 169 235 310 253 204 185 151 175 185 236 250 271 287 246 209 204 201 203 203 202 204 206 206 208 212 216 219 221 224 226 225 225 225 225 224 222 224 227 228 228 227 227 228 228 229 229 227 227 228 229 232 234 237 238 239 238 237 238 241 245 248 251 253 255 256 257 258 258 258 260 260 258 255 256 259 262 264 267 268 269 272 277 277 276 278 281 284 285 282 283 285 288 288
286 300 232 222 180 194 250 280 234 186 151 196 202 224 243 260 306 312 208 204 202 205 208 206 206 209 211 213 218 222 224 226 228 229 226 224 226 226 225 224 224 227 228 228 229 230 230 231 231 232 231 231 232 233 233 235 237 238 240 240 240 239 241 244 247 249 252 253 255 255 255 256 256 258 260 261 261 259 258 257 259 262 267 269 270 272 277 283 289 289 296 302 296 288 284 285 288
210 197 202 237 240 212 223 256 212 166 158 211 194 224 252 263 279 277 221 206 209 214 214 214 213 213 215 218 223 228 230 233 236 236 232 229 228 226 225 224 223 224 226 227 228 230 231 232 233 234 235 233 233 235 235 235 236 237 239 239 240 240 240 242 243 246 249 250 252 254 255 255 255 257 258 261 264 266 265 261 257 257 260 266 269 269 271 278 283 286 300 310 304 295 288 287 292
190 192 191 203 216 236 228 245 227 171 162 218 204 218 243 250 260 255 237 214 219 228 227 226 224 220 220 222 227 230 232 237 242 242 239 236 232 228 225 224 224 223 224 225 225 227 229 230 231 233 233 234 233 233 233 232 232 233 233 234 236 236 237 238 240 242 243 245 249 252 254 256 257 259 261 262 263 266 269 269 267 263 259 263 269 272 272 275 280 288 300 301 301 300 292 292 297
222 245 249 216 210 245 239 255 278 176 165 229 217 220 245 247 255 257 246 228 229 235 235 234 229 223 223 225 229 232 235 240 243 242 242 241 238 233 228 225 224 223 222 223 224 225 227 227 229 230 231 232 231 230 229 228 227 227 228 231 233 235 237 238 240 241 242 245 248 251 254 258 260 262 262 261 261 265 268 267 270 272 270 268 267 270 273 276 279 282 289 293 295 294 289 293 302
268 270 276 259 221 241 251 259 298 172 167 251 240 222 254 254 252 259 249 225 234 234 232 233 231 227 227 230 234 235 237 241 241 240 240 240 239 234 230 227 225 225 223 222 223 224 226 227 228 229 230 230 230 229 228 227 226 227 230 234 238 241 241 242 244 245 247 250 251 254 256 258 261 262 261 259 258 263 266 266 268 272 274 271 266 267 270 273 271 270 278 286 287 285 282 282 295
247 253 273 277 238 245 281 268 285 43 172 255 291 211 252 260 254 260 247 227 239 239 234 235 234 233 234 235 237 237 237 239 238 238 237 236 236 233 230 227 225 227 226 225 225 224 225 227 228 229 229 229 230 229 229 229 228 230 233 238 241 244 245 247 250 250 249 249 249 251 253 256 258 259 259 257 255 256 260 265 269 273 276 277 276 277 277 275 276 279 281 280 283 286 283 283 292
230 207 209 265 253 201 255 253 231 68 150 195 109 249 266 269 271 270 248 238 244 247 244 243 242 242 244 243 242 241 239 238 237 236 235 233 232 231 228 227 225 226 227 227 226 224 224 225 227 229 229 229 229 229 230 230 231 232 234 237 240 243 246 247 248 246 245 245 247 248 251 254 256 257 258 258 259 259 259 264 268 270 275 281 284 290 290 286 287 295 292 282 284 288 286 289 292
241 210 208 239 221 205 224 209 137 34 359 113 97 346 301 260 261 265 251 241 244 248 247 248 247 245 247 248 246 245 243 241 241 239 236 233 232 231 229 228 226 226 227 226 226 225 226 226 227 229 231 231 231 230 230 230 231 230 230 232 233 234 236 237 239 242 243 245 248 251 253 255 256 258 259 259 261 261 262 264 264 270 280 286 287 287 287 284 281 286 290 290 292 291 288 289 288
253 226 214 219 206 201 182 127 93 48 327 280 138 303 290 292 262 252 266 279 255 249 240 242 245 245 244 245 245 244 244 242 242 243 242 238 237 235 233 230 228 228 228 227 227 227 228 229 229 230 231 232 233 232 230 229 230 229 228 230 230 232 235 239 244 248 249 252 256 256 254 254 254 256 258 260 260 257 256 258 259 269 275 274 276 277 272 272 277 275 276 290 299 290 281 285 289
247 240 211 205 177 141 143 152 123 118 232 283 88 173 255 318 297 257 287 310 273 264 245 243 245 244 243 243 243 243 242 241 240 242 243 241 240 238 237 235 231 231 230 229 229 228 228 229 230 231 232 232 233 232 230 229 229 230 231 233 236 239 243 248 251 253 253 254 254 252 250 250 252 254 257 258 259 258 257 257 254 255 254 254 261 264 257 265 276 273 270 285 293 282 276 285 292
230 241 180 160 150 154 166 165 154 188 214 335 24 137 223 292 273 271 310 303 288 285 265 253 246 243 242 241 242 242 241 242 242 242 243 243 242 241 240 240 238 237 234 231 230 229 228 229 230 231 232 233 232 231 230 229 229 231 233 236 239 242 245 248 250 250 251 249 246 245 245 247 249 252 256 258 260 263 264 263 260 255 253 257 264 266 262 265 270 267 267 272 276 273 275 286 287
234 210 152 148 153 156 159 149 141 13 99 299 309 127 193 269 276 300 336 305 293 284 264 254 246 243 242 242 242 243 243 244 244 244 245 244 244 243 242 241 241 239 235 232 231 229 229 230 230 231 232 232 232 232 232 231 232 234 236 239 241 243 243 243 243 244 245 243 243 244 245 247 249 252 256 259 262 264 264 264 261 259 257 257 263 266 263 262 262 259 258 261 269 274 275 281 284
204 149 111 86 80 88 103 121 112 53 83 245 256 202 197 269 282 303 335 299 270 270 267 263 258 250 244 244 244 244 245 245 244 245 245 244 245 243 241 238 237 236 233 232 232 232 232 233 233 233 233 233 233 233 234 233 234 236 237 239 240 242 242 240 239 238 239 241 242 245 247 250 253 256 258 259 260 261 261 261 259 260 260 255 259 264 258 254 255 256 258 265 275 278 277 283 285
134 109 83 61 42 49 50 62 91 83 270 250 244 220 189 265 279 253 228 231 224 242 273 278 273 268 257 250 249 248 247 246 243 243 241 240 240 239 236 235 233 231 230 231 232 233 234 235 236 236 236 234 233 233 234 234 235 236 238 239 240 240 240 240 239 237 238 240 241 244 248 252 255 255 253 250 250 250 252 256 258 259 262 261 262 264 260 258 260 264 270 274 274 270 272 275 274
128 96 100 89 6 18 28 360 45 189 254 261 250 207 167 222 262 246 235 249 227 220 249 266 275 286 286 267 258 254 249 244 238 235 234 234 235 236 234 232 230 227 227 229 230 232 233 234 235 237 236 235 234 233 233 234 234 235 237 239 240 240 240 239 239 239 240 241 243 248 251 251 250 245 239 237 238 242 246 252 256 256 257 258 259 262 265 268 271 276 281 283 281 277 275 274 272
130 115 122 128 326 27 202 277 291 222 246 262 244 197 195 230 251 255 258 263 252 228 228 246 269 293 305 298 281 266 247 237 231 229 231 234 236 237 236 233 231 229 229 230 231 231 233 235 235 235 235 235 234 232 232 232 233 234 235 237 238 239 238 238 239 240 242 244 246 248 246 241 235 231 229 230 234 239 243 247 251 256 261 263 266 270 272 276 279 282 285 285 287 286 284 283 284
152 143 142 153 137 123 212 241 272 256 261 274 253 244 259 266 260 249 244 250 257 257 253 260 269 281 290 293 289 272 248 234 229 231 234 238 241 241 241 239 237 236 236 236 236 236 237 237 236 236 235 234 233 232 231 231 231 232 233 235 236 235 235 235 237 238 240 243 242 238 231 225 220 216 214 213 214 216 222 231 239 248 256 261 266 269 269 272 273 275 280 284 289 293 296 301 307
183 162 143 160 165 162 200 212 212 238 267 280 263 243 203 199 249 248 244 258 269 275 276 270 265 264 269 271 263 249 241 233 230 233 237 241 245 245 245 244 241 240 239 238 238 238 237 237 236 236 234 233 232 231 230 229 229 230 230 231 231 231 231 232 234 236 236 234 228 221 216 209 200 195 195 195 195 196 199 205 210 214 220 230 239 243 247 249 249 265 316 352 354 356 358 359 0
219 142 129 183 186 148 149 189 186 183 227 254 220 233 213 209 277 276 264 273 275 272 277 278 265 257 256 254 247 237 234 233 235 240 244 246 247 246 247 246 244 243 240 239 237 236 235 235 234 234 234 233 231 230 229 228 228 227 227 227 226 226 228 229 229 229 225 220 213 208 200 191 186 185 184 182 179 181 185 187 188 190 190 193 191 180 165 142 116 86 70 55 42 35 22 14 10
186 124 181 212 155 116 122 201 147 106 205 251 201 253 287 314 296 292 291 285 281 275 270 264 257 252 246 241 238 235 236 238 243 249 252 253 251 249 249 248 247 246 243 241 238 236 235 234 233 232 231 230 228 227 227 225 225 224 224 223 223 224 224 224 222 217 211 203 197 192 187 184 183 178 172 172 176 180 182 183 184 186 180 170 155 140 132 123 112 96 81 61 37 21 8 359 349
134 168 203 187 107 96 116 169 4 60 231 268 232 227 275 313 270 308 325 291 278 276 260 251 245 238 237 237 235 237 242 245 250 254 257 258 257 255 253 250 248 245 241 238 234 233 232 231 230 229 227 225 223 223 223 223 223 222 221 222 221 220 218 213 208 202 195 189 185 183 181 179 176 171 173 179 184 185 183 184 182 177 169 157 146 141 136 122 110 103 90 60 3 346 335 331 328
147 195 194 138 155 206 141 169 201 179 230 277 297 250 249 206 217 295 303 259 257 263 254 248 241 232 234 239 237 237 241 245 251 256 259 261 261 259 257 254 253 248 241 235 228 225 223 221 221 220 222 222 220 220 220 220 220 219 219 218 214 209 204 198 192 187 183 181 180 177 174 173 172 177 182 181 181 181 179 181 179 172 168 164 163 160 154 143 133 149 336 336 334 332 328 326 326
47 57 216 90 147 178 174 169 166 173 214 252 286 285 257 223 212 221 236 239 249 258 255 240 238 236 238 242 241 238 240 245 253 258 259 260 259 261 261 260 260 253 243 233 224 219 214 211 210 209 212 215 215 215 215 214 215 213 211 205 200 196 190 184 181 179 178 176 173 171 171 174 178 179 180 179 179 179 180 183 182 181 182 180 180 177 178 210 276 306 319 323 322 324 324 325 327
154 159 188 208 101 109 157 178 135 140 179 209 253 272 259 244 209 196 218 236 242 248 250 239 246 248 248 249 246 241 240 244 252 256 257 258 260 261 261 257 252 240 227 218 212 209 206 203 201 199 201 204 205 206 206 206 204 200 195 189 186 183 179 178 178 176 174 171 169 172 174 177 179 178 178 179 180 181 183 185 185 189 191 189 194 202 226 268 294 307 312 313 315 320 323 324 328
176 186 196 194 166 120 170 224 213 126 180 185 195 253 257 245 206 197 211 225 238 251 246 239 253 260 260 258 250 243 240 242 248 252 254 257 261 262 258 252 242 226 216 208 201 201 200 197 194 192 193 195 196 195 192 190 189 185 182 180 178 177 175 176 176 173 171 171 173 175 177 178 179 179 177 178 182 182 182 186 188 191 192 192 206 231 262 288 299 303 304 306 311 320 325 328 330